Showing default

SPOT 4, 25260

Orbit data source: Space-Track

SPOT 4, 25260 is a payload satellite owned by CNES (FR) in SSO that was launched on Tue, 24 Mar 1998 UTC via an ARIANE 40 launch vehicle from the French Guiana (FRGUI). Payload-class satellites include a variety of spacecraft equipped with specific instruments for various scientific and technological missions. These include communications satellites like Starlink; space stations such as the ISS; scientific satellites like the Hubble; Earth observation satellites from companies like Planet Labs, Umbra, and HawkEye 360; GPS; miniature CubeSats for education and research; and military/defense satellites.

Loading next visibility...
Identifier
25260, 1998-017A
Orbit
SSO
Country
Flag of FRFR
Related business
Manufacturer
MMS/Toulouse
Mission
Non-operational Civil Imaging
Bus & Motor
SPOT, SPOT AOCS
Mass
2,755 kg wet, 2,600 kg dry
Launch date (UTC)
1998-03-24 (29 years ago)
Launch vehicle
ARIANE 40
Launch site
French Guiana (FRGUI)
Object type
Payload
Rocket body
Debris
Shape & HBR
Box + 1 Pan, 4.1 m
Radar Cross Section
37.816 m², Large (>1 m²)

Expand to show TLE details & history
Last TLE update: 10 hours ago

TLE from 10 hours ago
0 SPOT 4
1 25260U 98017A   26265.71094228  .00000168  00000-0  48337-4 0  9998
2 25260  98.2469   0.2930 0011227 281.6758  78.3179 14.56156292493506
Epoch: 2026-09-22T17:03Z
TLE epoch observation values (Epoch: 2026-09-22T17:03:45.412Z)
Latitude
-0.00013°
Longitude
102.7813°
Altitude
706.989 km
Speed
7.503 km/s
True Right ascension
00h 01m 10s
True Declination
0° 00' 00"
Sunlit
Object was in full shadow at epoch
Visualization orbit readout
Latitude
Unknown
Longitude
Unknown
Altitude
Unknown
Speed
Unknown
Apparent Right ascension
Unknown
Apparent Declination
Unknown
Sunlit
N/A
Visualization observer readout
Local Sidereal Time
20:30:09
Azimuth
Unknown
Elevation
Unknown
Doppler factor
Unknown
Orbital elements
Apogee altitude
710.65 km
Perigee altitude
694.751 km
Semi-major axis
7,080.838 km
Eccentricity
0.00112
Inclination
98.2469°
RAAN
0.293°
Arg. of periapsis
281.6758°
True anomaly
78.44392°
Mean anomaly
78.3179°
Eccentric anomaly
78.38091°
Mean motion
3.64264 °/min
Orbital period
98.83 mins
BSTAR
0.000048337
Loading maneuver chart data...
Computing Atmospheric mass density...
Loading historical data...
Loading historical data...
Loading historical data...
Loading historical data...
Loading historical data...
Loading historical data...
Loading historical data...

Documentation

Showing up to 5 results
|